Location: Austin
(30.3000°N, 97.7500°W)
Time: 16:17:05
(UTC-05:00)

Daily predictions for brighter satellites

Satellite Brightness Start Highest point End
(mag) Time Altitude Azimuth Time Altitude Azimuth Time Altitude Azimuth
RESURS DK-1 2.4 20:45:04 10° S 20:49:05 56° ESE 20:53:08 10° NNE
Cosmos 1538 Rocket 4.2 20:45:25 10° S 20:50:19 46° ESE 20:55:14 10° NNE
FREGAT/IRIS 4.4 20:47:43 10° SSW 20:50:31 34° W 20:53:20 10° NNW
USA 238 DEB 4.0 20:43:52 10° NNW 20:50:58 77° WSW 20:58:05 10° SSE
USA 238 4.0 20:43:58 10° NNW 20:51:05 77° WSW 20:58:12 10° SSE
NOSS 2-2 (E) 4.0 20:50:01 10° S 20:53:34 32° ESE 20:57:18 10° NE
Okean 1 4.0 20:51:59 10° SSE 20:55:34 33° E 20:59:10 10° NNE
Cosmos 44 3.0 20:54:51 10° NNW 20:59:11 90° ENE 21:03:35 10° SSE
FALCON 9 R/B 2.6 20:58:08 10° W 21:00:27 18° SW 21:02:08 10° SSE
Cosmos 1455 Rocket 4.5 20:57:28 10° NNE 21:00:43 20° ENE 21:03:42 11° SE
Intelsat 5-1 Rocket 4.2 20:54:06 10° W 21:00:45 22° SW 21:04:12 10° SSE
Cosmos 2369 Rocket 2.3 20:57:03 10° NNW 21:02:41 63° ENE 21:08:18 10° SSE
Cosmos 1975 4.2 21:00:04 10° NNE 21:03:15 22° ENE 21:06:01 12° SE
Cosmos 1536 3.9 21:00:11 10° NNW 21:04:01 48° W 21:07:50 10° SSW
Tiangong 2 1.7 21:01:20 10° SSW 21:04:16 35° SE 21:07:12 10° ENE
Abrixas 3.0 21:03:48 10° NW 21:06:26 40° NE 21:08:28 15° ESE
Helios 1B rocket 2.8 21:04:44 10° NNE 21:08:41 43° E 21:12:36 10° S
ISS -2.1 21:07:18 10° SSE 21:09:17 15° SE 21:09:53 14° ESE
Cosmos 1939 Rocket 4.1 21:09:19 13° ESE 21:11:50 24° ENE 21:14:57 10° NNE
COSMOS 2455 3.8 21:08:33 10° N 21:13:48 31° ENE 21:18:02 14° ESE
Cosmos 2292 Rocket 4.3 21:09:54 10° N 21:15:03 78° E 21:21:58 10° S
Cosmos 1709 Rocket 4.1 21:08:55 10° N 21:15:04 57° E 21:21:06 10° SSE
Meteor 1-29 3.4 21:13:16 10° NNE 21:16:25 36° E 21:19:33 10° SSE
Cosmos 1818 3.5 21:12:22 10° SSW 21:17:46 79° ESE 21:23:13 10° NNE
ATLAS 3B R/B 4.2 21:12:37 10° NW 21:18:16 31° WSW 21:23:49 10° S
Meteor 1-18 Rocket 4.4 21:12:32 10° S 21:18:27 87° W 21:24:25 10° N
Cosmos 1437 3.6 21:16:23 15° SSE 21:18:30 29° E 21:21:21 10° NNE
OAO 2 Rocket 3.3 21:14:03 10° WSW 21:18:59 82° NNW 21:24:00 10° ENE
Cosmos 1943 Rocket 2.6 21:16:09 10° N 21:21:31 45° ENE 21:25:30 17° SE
Cosmos 1500 3.6 21:18:27 10° N 21:22:02 42° E 21:24:30 18° SE
COSMOS 2406 3.7 21:18:20 10° S 21:23:36 39° ESE 21:28:53 10° NE
ERS-1 Rocket 4.5 21:21:30 15° ESE 21:23:52 20° ENE 21:27:27 10° NNE
NOSS 3-2 (C) 4.1 21:18:41 10° NNW 21:26:27 74° ENE 21:33:21 16° SE
CZ-4B DEB 3.5 21:27:35 25° ESE 21:28:31 30° ENE 21:31:12 10° NNE
USA 186 2.1 21:26:09 10° S 21:29:22 65° WSW 21:32:35 10° NNW
USA 81 4.2 21:26:00 10° SSE 21:31:07 55° E 21:36:16 10° NNE
Aurora 2 Rocket 4.4 21:24:17 10° WSW 21:32:04 61° S 21:41:07 14° E
CZ-3B Rocket 3.4 21:30:47 10° SW 21:33:55 22° SSE 21:35:28 20° SE
Cosmos 773 Rocket 4.0 21:30:33 10° SSW 21:35:43 85° WNW 21:40:53 10° NNE
NOSS 2-2 (D) 3.3 21:32:17 10° SSW 21:36:14 88° WNW 21:40:26 10° NNE
SJ-11-01 4.4 21:34:58 20° SSE 21:38:08 59° ENE 21:42:45 10° N
Cosmos 2315 Rocket 4.4 21:34:34 10° SSW 21:40:44 66° W 21:47:01 10° N
GPS 2-05 Rocket1 4.4 21:41:54 10° W 21:44:20 20° SSW 21:45:02 19° SSW
Cosmos 1743 3.6 21:41:08 10° NNE 21:44:38 31° E 21:45:15 30° E
Cosmos 2263 4.4 21:41:55 10° NNW 21:47:41 73° WSW 21:52:02 18° S
NOSS 3-2 (A) 4.4 21:41:28 10° NW 21:49:11 64° WSW 21:56:05 15° SSE
Cosmos 1536 Rocket 3.5 21:45:18 10° S 21:49:37 81° W 21:53:58 10° N
SL-27 R/B 3.8 21:50:50 25° ENE 21:50:50 25° ENE 21:53:03 10° NE
CENTAUR R/B 3.8 21:43:34 10° NNW 21:51:04 41° NE 21:55:42 23° ESE
ASTRO E2 2.8 21:48:19 10° W 21:52:18 74° N 21:54:11 30° ENE
Aureole 1 Rocket 2.9 21:53:35 42° E 21:53:35 42° E 21:56:30 10° NNE
Cosmos 2184 Rocket 4.4 21:47:35 10° N 21:53:39 46° E 21:56:27 29° SE
Cosmos 2074 Rocket 4.3 21:48:56 10° N 21:54:57 49° E 21:57:50 29° SE
NOSS 2-2 (C) 4.3 21:51:09 10° SW 21:55:00 50° WNW 21:59:09 10° NNE
Cosmos 1680 Rocket 3.4 21:50:30 10° S 21:55:41 66° ESE 22:00:51 10° NNE
Helios 1A 3.5 21:56:27 20° S 21:59:15 58° W 22:03:25 10° NNW
Resurs 01 Rocket 4.2 22:02:32 10° SW 22:05:32 18° W 22:08:32 10° NW
Meteor 2-4 Rocket 3.6 22:07:08 28° S 22:10:06 69° E 22:15:46 10° NNE
Envisat 3.8 22:06:22 16° S 22:10:14 49° W 22:15:09 10° NNW
SPOT 5 3.7 22:13:45 28° ENE 22:13:45 28° ENE 22:17:14 10° NNE
Cosmos 1666 3.0 22:14:02 10° N 22:17:11 50° NE 22:17:11 50° NE
Cosmos 1025 Rocket 3.2 22:22:45 55° ENE 22:22:45 55° ENE 22:26:31 10° NNE
Nadezhda 1 Rocket 3.9 22:20:42 26° S 22:24:31 88° E 22:30:55 10° N
ASTEX 1 3.3 22:23:28 49° S 22:24:49 87° W 22:29:45 10° N
Terra 3.9 22:32:52 14° NE 22:32:52 14° NE 22:34:32 10° NE
CRYOSAT 2 4.4 22:34:02 56° SSW 22:34:59 75° W 22:39:51 10° N
Meteor 1-23 Rocket 4.1 22:35:06 46° S 22:36:50 88° W 22:42:26 10° N
Cosmos 2154 Rocket 4.1 22:30:55 10° N 22:37:08 55° E 22:37:56 52° ESE
YAOGAN 6 4.1 22:39:52 29° W 22:39:53 29° W 22:42:59 10° NW
MOS 1-B Rocket 3.7 22:39:55 61° SSE 22:41:00 84° ENE 22:47:00 10° NNW
Tiangong 2 3.3 22:38:20 10° W 22:40:58 25° NNW 22:40:58 25° NNW
Cosmos 1238 Rocket 4.3 22:39:16 28° SSW 22:42:59 72° W 22:49:44 10° N
H-2A R/B 4.3 22:45:08 16° NE 22:45:08 16° NE 22:46:48 10° NNE
ISS -1.0 22:42:32 10° WSW 22:43:04 13° WSW 22:43:04 13° WSW
MetOp-A 4.1 22:47:32 64° SSW 22:48:16 74° WSW 22:53:38 10° NNW
Meteor 1-15 Rocket 4.2 22:43:19 10° N 22:48:42 61° ENE 22:48:42 61° ENE
Nimbus 7 Rocket 4.3 22:43:07 10° NNE 22:49:12 88° ESE 22:50:39 55° SSW
Cosmos 1656 Rocket 3.8 22:45:36 10° NNW 22:50:59 64° WSW 22:51:37 59° SW
COSMOS 2455 4.1 22:54:21 10° NW 22:59:37 32° WSW 23:01:12 28° SW
ERS-1 Rocket 4.1 23:01:30 33° WSW 23:02:21 35° W 23:06:55 10° NNW
Cosmos 967 Rocket 4.3 23:02:21 70° SSW 23:03:11 90° NNE 23:09:28 10° NNE
H-2A R/B 2.4 23:04:42 54° NNE 23:04:42 54° NNE 23:08:39 10° N
Cosmos 2341 Rocket 4.0 22:57:25 10° N 23:03:42 67° E 23:03:42 67° E
OAO 2 Rocket 4.0 22:59:14 10° WNW 23:04:04 49° N 23:04:26 48° NNE
Cosmos 1943 Rocket 4.3 23:01:14 10° WNW 23:04:47 17° W 23:07:05 14° SW
Meteor 2-19 Rocket 4.3 23:05:22 10° N 23:11:16 78° NE 23:11:16 78° NE
Yuri Rocket 4.3 23:03:51 10° W 23:12:59 67° SSW 23:13:03 67° S
ARGOS 3.5 23:13:55 56° W 23:13:55 56° W 23:19:10 10° NNW
DMSP B5D2-2 4.5 23:10:39 10° NNE 23:14:52 58° NNE 23:14:52 58° NNE
USA 267 3.1 23:13:23 10° NE 23:19:33 78° E 23:19:33 78° E
CZ-3A R/B 4.0 23:18:13 10° W 23:19:43 13° WNW 23:19:43 13° WNW
Cosmos 2082 Rocket 3.4 23:24:52 32° NE 23:24:52 32° NE 23:27:53 10° NNE
Cosmos 2181 Rocket 4.3 23:30:48 62° W 23:31:08 63° W 23:37:26 10° N
CENTAUR R/B 3.8 23:34:15 10° NW 23:41:51 43° WSW 23:42:55 41° SW
